Time,TemperatureF,DewpointF,PressureIn,WindDirection,WindDirectionDegrees,WindSpeedMPH,WindSpeedGustMPH,Humidity,HourlyPrecipIn,Conditions,Clouds,dailyrainin,SoftwareType,DateUTC
2013-08-04 00:02:00,64.0,62.0,-100.00,North,355,0.0,3.0,95,0.00,,,-99.99,,2013-08-04 05:02:00,
2013-08-04 00:12:00,64.0,62.0,-100.00,NW,325,1.0,2.0,95,0.00,,,-99.99,,2013-08-04 05:12:00,
2013-08-04 00:32:00,64.0,62.0,-100.00,NNW,340,0.0,2.0,95,0.00,,,-99.99,,2013-08-04 05:32:00,
2013-08-04 00:42:00,63.0,61.0,-100.00,NNW,330,1.0,2.0,95,0.00,,,-99.99,,2013-08-04 05:42:00,
2013-08-04 01:02:00,62.0,61.0,-100.00,NW,310,1.0,2.0,95,0.00,,,-99.99,,2013-08-04 06:02:00,
2013-08-04 01:32:00,62.0,60.0,-100.00,NNW,345,1.0,2.0,95,0.00,,,-99.99,,2013-08-04 06:32:00,
2013-08-04 01:43:00,61.0,60.0,-100.00,WNW,285,0.0,3.0,95,0.00,,,-99.99,,2013-08-04 06:43:00,
2013-08-04 01:52:00,61.0,60.0,-100.00,North,5,0.0,2.0,95,0.00,,,-99.99,,2013-08-04 06:52:00,
2013-08-04 02:32:00,61.0,59.0,-100.00,NNW,330,1.0,2.0,95,0.00,,,-99.99,,2013-08-04 07:32:00,
2013-08-04 02:52:00,60.0,58.0,-100.00,WNW,295,0.0,0.0,95,0.00,,,-99.99,,2013-08-04 07:52:00,
2013-08-04 03:12:00,60.0,58.0,-100.00,South,175,0.0,0.0,95,0.00,,,-99.99,,2013-08-04 08:12:00,
2013-08-04 03:33:00,60.0,58.0,-100.00,NNW,330,0.0,2.0,95,0.00,,,-99.99,,2013-08-04 08:33:00,
2013-08-04 03:43:00,60.0,58.0,-100.00,North,5,0.0,3.0,95,0.00,,,-99.99,,2013-08-04 08:43:00,
2013-08-04 03:53:00,60.0,58.0,-100.00,NE,55,0.0,2.0,95,0.00,,,-99.99,,2013-08-04 08:53:00,
2013-08-04 04:12:00,60.0,58.0,-100.00,WSW,245,0.0,1.0,95,0.00,,,-99.99,,2013-08-04 09:12:00,
2013-08-04 04:32:00,59.0,58.0,-100.00,NNE,30,0.0,2.0,95,0.00,,,-99.99,,2013-08-04 09:32:00,
2013-08-04 04:43:00,59.0,58.0,-100.00,ESE,105,0.0,0.0,95,0.00,,,-99.99,,2013-08-04 09:43:00,
2013-08-04 05:32:00,59.0,58.0,-100.00,NNW,340,0.0,0.0,95,0.00,,,-99.99,,2013-08-04 10:32:00,
2013-08-04 05:43:00,58.0,57.0,-100.00,South,180,0.0,0.0,95,0.00,,,-99.99,,2013-08-04 10:43:00,
2013-08-04 06:32:00,57.0,56.0,-100.00,SSE,160,0.0,1.0,95,0.00,,,-99.99,,2013-08-04 11:32:00,
2013-08-04 06:42:00,57.0,56.0,-100.00,SSE,160,0.0,0.0,95,0.00,,,-99.99,,2013-08-04 11:42:00,
2013-08-04 07:12:00,59.0,58.0,-100.00,NNW,330,0.0,0.0,95,0.00,,,-99.99,,2013-08-04 12:12:00,
2013-08-04 07:32:00,60.0,58.0,-100.00,NE,40,2.0,2.0,95,0.00,,,-99.99,,2013-08-04 12:32:00,
2013-08-04 07:43:00,61.0,60.0,-100.00,NNE,30,0.0,2.0,95,0.00,,,-99.99,,2013-08-04 12:43:00,
2013-08-04 08:32:00,65.0,63.0,-100.00,East,95,1.0,3.0,92,0.00,,,-99.99,,2013-08-04 13:32:00,
2013-08-04 08:43:00,65.0,63.0,-100.00,East,100,3.0,4.0,91,0.00,,,-99.99,,2013-08-04 13:43:00,
2013-08-04 08:52:00,66.0,63.0,-100.00,ESE,115,4.0,6.0,87,0.00,,,-99.99,,2013-08-04 13:52:00,
2013-08-04 09:12:00,68.0,64.0,-100.00,ESE,115,3.0,6.0,86,0.00,,,-99.99,,2013-08-04 14:12:00,
2013-08-04 09:43:00,70.0,63.0,-100.00,East,100,5.0,8.0,78,0.00,,,-99.99,,2013-08-04 14:43:00,
2013-08-04 09:53:00,71.0,63.0,-100.00,SSE,160,4.0,6.0,77,0.00,,,-99.99,,2013-08-04 14:53:00,
2013-08-04 10:12:00,72.0,62.0,-100.00,SSE,165,5.0,8.0,72,0.00,,,-99.99,,2013-08-04 15:12:00,
2013-08-04 10:32:00,73.0,62.0,-100.00,SSE,155,6.0,8.0,70,0.00,,,-99.99,,2013-08-04 15:32:00,
2013-08-04 10:43:00,74.0,62.0,-100.00,SSE,150,4.0,8.0,67,0.00,,,-99.99,,2013-08-04 15:43:00,
2013-08-04 11:33:00,75.0,63.0,-100.00,SSE,165,2.0,9.0,65,0.00,,,-99.99,,2013-08-04 16:33:00,
2013-08-04 11:42:00,75.0,63.0,-100.00,ESE,115,5.0,11.0,65,0.00,,,-99.99,,2013-08-04 16:42:00,
2013-08-04 11:53:00,75.0,61.0,-100.00,SE,145,6.0,9.0,60,0.00,,,-99.99,,2013-08-04 16:53:00,
2013-08-04 12:32:00,77.0,61.0,-100.00,ESE,110,7.0,12.0,58,0.00,,,-99.99,,2013-08-04 17:32:00,
2013-08-04 12:43:00,77.0,61.0,-100.00,ESE,110,7.0,12.0,57,0.00,,,-99.99,,2013-08-04 17:43:00,
2013-08-04 12:53:00,77.0,61.0,-100.00,ESE,115,7.0,11.0,57,0.00,,,-99.99,,2013-08-04 17:53:00,
2013-08-04 13:12:00,77.0,59.0,-100.00,SE,130,7.0,11.0,54,0.00,,,-99.99,,2013-08-04 18:12:00,
2013-08-04 13:33:00,77.0,59.0,-100.00,SSE,155,7.0,14.0,52,0.00,,,-99.99,,2013-08-04 18:33:00,
2013-08-04 13:43:00,79.0,60.0,-100.00,ESE,115,4.0,10.0,52,0.00,,,-99.99,,2013-08-04 18:43:00,
2013-08-04 13:52:00,78.0,61.0,-100.00,SSE,165,6.0,12.0,54,0.00,,,-99.99,,2013-08-04 18:52:00,
2013-08-04 14:33:00,79.0,63.0,-100.00,SSE,150,10.0,13.0,57,0.00,,,-99.99,,2013-08-04 19:33:00,
2013-08-04 14:43:00,78.0,58.0,-100.00,SSE,155,6.0,13.0,50,0.00,,,-99.99,,2013-08-04 19:43:00,
2013-08-04 15:12:00,81.0,62.0,-100.00,South,190,4.0,10.0,52,0.00,,,-99.99,,2013-08-04 20:12:00,
2013-08-04 15:43:00,80.0,61.0,-100.00,South,185,7.0,10.0,53,0.00,,,-99.99,,2013-08-04 20:43:00,
2013-08-04 16:32:00,81.0,61.0,-100.00,South,180,7.0,11.0,51,0.00,,,-99.99,,2013-08-04 21:32:00,
2013-08-04 16:43:00,81.0,62.0,-100.00,SSE,160,3.0,12.0,52,0.00,,,-99.99,,2013-08-04 21:43:00,
2013-08-04 16:53:00,80.0,63.0,-100.00,SSE,155,4.0,7.0,56,0.00,,,-99.99,,2013-08-04 21:53:00,
2013-08-04 17:12:00,81.0,63.0,-100.00,South,185,7.0,11.0,54,0.00,,,-99.99,,2013-08-04 22:12:00,
2013-08-04 17:32:00,81.0,64.0,-100.00,SSW,210,4.0,12.0,55,0.00,,,-99.99,,2013-08-04 22:32:00,
2013-08-04 18:12:00,78.0,63.0,-100.00,SE,145,7.0,11.0,58,0.00,,,-99.99,,2013-08-04 23:12:00,
2013-08-04 18:32:00,80.0,65.0,-100.00,SSW,200,6.0,11.0,58,0.00,,,-99.99,,2013-08-04 23:32:00,
2013-08-04 18:43:00,79.0,64.0,-100.00,SE,140,4.0,11.0,60,0.00,,,-99.99,,2013-08-04 23:43:00,
2013-08-04 18:53:00,79.0,64.0,-100.00,South,175,6.0,11.0,60,0.00,,,-99.99,,2013-08-04 23:53:00,
2013-08-04 19:33:00,78.0,65.0,-100.00,SSE,150,4.0,7.0,64,0.00,,,-99.99,,2013-08-05 00:33:00,
2013-08-04 19:42:00,77.0,64.0,-100.00,SSE,150,5.0,7.0,62,0.00,,,-99.99,,2013-08-05 00:42:00,
2013-08-04 19:52:00,77.0,64.0,-100.00,SSE,165,3.0,10.0,63,0.00,,,-99.99,,2013-08-05 00:52:00,
2013-08-04 20:33:00,76.0,64.0,-100.00,SE,130,4.0,6.0,67,0.00,,,-99.99,,2013-08-05 01:33:00,
2013-08-04 20:42:00,74.0,65.0,-100.00,SE,140,2.0,4.0,73,0.00,,,-99.99,,2013-08-05 01:42:00,
2013-08-04 21:12:00,73.0,65.0,-100.00,SSE,160,2.0,5.0,77,0.00,,,-99.99,,2013-08-05 02:12:00,
2013-08-04 21:33:00,72.0,65.0,-100.00,SE,145,4.0,4.0,78,0.00,,,-99.99,,2013-08-05 02:33:00,
2013-08-04 21:43:00,71.0,66.0,-100.00,SE,140,3.0,6.0,84,0.00,,,-99.99,,2013-08-05 02:43:00,
2013-08-04 21:53:00,71.0,66.0,-100.00,SE,130,4.0,6.0,86,0.00,,,-99.99,,2013-08-05 02:53:00,
2013-08-04 22:12:00,70.0,66.0,-100.00,SE,125,3.0,4.0,86,0.00,,,-99.99,,2013-08-05 03:12:00,
2013-08-04 22:32:00,70.0,66.0,-100.00,SE,135,2.0,4.0,87,0.00,,,-99.99,,2013-08-05 03:32:00,
2013-08-04 22:42:00,69.0,66.0,-100.00,SE,130,3.0,4.0,89,0.00,,,-99.99,,2013-08-05 03:42:00,
2013-08-04 22:53:00,69.0,66.0,-100.00,SE,135,3.0,4.0,89,0.00,,,-99.99,,2013-08-05 03:53:00,
2013-08-04 23:12:00,69.0,67.0,-100.00,SSE,165,2.0,4.0,94,0.00,,,-99.99,,2013-08-05 04:12:00,
2013-08-04 23:32:00,69.0,66.0,-100.00,SSE,155,3.0,4.0,91,0.00,,,-99.99,,2013-08-05 04:32:00,
2013-08-04 23:43:00,68.0,66.0,-100.00,SE,145,3.0,5.0,94,0.00,,,-99.99,,2013-08-05 04:43:00,
2013-08-04 23:52:00,67.0,66.0,-100.00,SE,140,3.0,6.0,95,0.00,,,-99.99,,2013-08-05 04:52:00,